R/V Knorr Calliope CSV data file - KN195_VI  (Time stamps are GMT)
Date, Time_GMT, Depth12, Depth35, Air_Temp, WXT5_Ta, WXT5_Pa, dec_lat, dec_lon, GPS_COG, GPS_SOG, Gyro, IMET_BPR, IMET_SWR, WXT5_Ri, WXT5_Rc, HRH, WXT5_Ua, WXT5_Dm, WXT5_Sm, SBE45C, SBE45S, SBE45T, Salinity, SSCND, Fluorometer, SSTMP, SSV, Wnd_Dir, TWD5, Wnd_Spd, TWS5, HdChkSum=3E
2009/04/20, 00:00:22, , , 22.53, 22.30, 1010.5, 17.7316030, -145.6611780, 290.70, 12.45, 288.00, 1010.45, 696.30, 0.0, 199.23, 73.17, 70.7, 92, 4.7, 52.78950, 34.50670, 25.3718, 34.5067, 52.7895, 64.40, 23.1228, 1529.21, 78.00, 74.1, 7.67, 8.6, 3E
2009/04/20, 00:01:22, , , 22.55, 22.30, 1010.4, 17.7327830, -145.6645550, 292.80, 12.31, 290.50, 1010.30, 696.60, 0.0, 199.23, 72.64, 70.7, 101, 4.6, 52.78920, 34.50800, 25.3699, 34.5080, 52.7892, 64.40, 23.1230, 1529.21, 78.10, 72.1, 7.93, 8.1, 3E
2009/04/20, 00:02:22, , , 22.50, 22.20, 1010.3, 17.7340180, -145.6679870, 287.20, 11.96, 291.80, 1010.33, 699.90, 0.0, 199.23, 72.00, 69.8, 100, 4.2, 52.79000, 34.50890, 25.3694, 34.5089, 52.7900, 64.40, 23.1209, 1529.21, 74.30, 81.3, 8.20, 7.8, 3E
2009/04/20, 00:03:22, , , 22.53, 22.20, 1010.5, 17.7352130, -145.6713180, 289.40, 12.72, 288.90, 1010.38, 706.50, 0.0, 199.23, 71.49, 69.7, 90, 3.6, 52.79000, 34.50930, 25.3689, 34.5093, 52.7900, 64.40, 23.1187, 1529.20, 77.90, 81.8, 7.96, 6.9, 3E
2009/04/20, 00:04:23, , , 22.63, 22.30, 1010.5, 17.7363950, -145.6747570, 288.40, 13.04, 289.70, 1010.38, 732.50, 0.0, 199.23, 71.82, 71.2, 116, 3.1, 52.79000, 34.50950, 25.3686, 34.5095, 52.7900, 64.70, 23.1153, 1529.19, 79.80, 92.7, 8.01, 8.2, 3E
2009/04/20, 00:05:23, , , 22.65, 22.30, 1010.5, 17.7376150, -145.6781780, 288.00, 12.55, 291.20, 1010.38, 699.80, 0.0, 199.23, 72.45, 70.9, 95, 3.6, 52.78820, 34.51030, 25.3658, 34.5103, 52.7882, 64.70, 23.1125, 1529.19, 81.90, 85.0, 7.88, 7.4, 3E
2009/04/20, 00:06:22, , , 22.67, 22.30, 1010.5, 17.7387930, -145.6815750, 288.30, 12.22, 289.90, 1010.26, 682.40, 0.0, 199.23, 72.36, 71.3, 108, 3.0, 52.78840, 34.51090, 25.3654, 34.5109, 52.7884, 64.40, 23.1094, 1529.18, 81.00, 85.3, 7.15, 7.6, 3E
2009/04/20, 00:07:22, , , 22.60, 22.30, 1010.5, 17.7400180, -145.6850180, 291.20, 12.20, 290.20, 1010.36, 649.90, 0.0, 199.23, 72.93, 71.2, 98, 3.2, 52.78640, 34.51130, 25.3628, 34.5113, 52.7864, 64.70, 23.1056, 1529.17, 81.50, 86.1, 7.53, 7.2, 3E
2009/04/20, 00:08:22, , , 22.57, 22.40, 1010.4, 17.7412120, -145.6883480, 290.40, 12.56, 289.00, 1010.40, 613.60, 0.0, 199.23, 72.49, 71.4, 92, 3.2, 52.78920, 34.51170, 25.3650, 34.5117, 52.7892, 64.70, 23.1032, 1529.16, 85.20, 88.2, 7.45, 7.8, 3E
2009/04/20, 00:09:22, , , 22.68, 22.40, 1010.4, 17.7424080, -145.6917380, 283.80, 12.67, 292.60, 1010.28, 553.30, 0.0, 199.23, 73.48, 72.7, 97, 4.3, 52.78970, 34.51210, 25.3649, 34.5121, 52.7897, 64.70, 23.1004, 1529.16, 80.30, 83.2, 8.26, 7.2, 3E
2009/04/20, 00:10:23, , , 22.61, 22.40, 1010.5, 17.7435920, -145.6951420, 282.70, 12.59, 291.70, 1010.23, 576.40, 0.0, 199.23, 73.43, 71.2, 93, 4.7, 52.78840, 34.51290, 25.3627, 34.5129, 52.7884, 64.40, 23.0984, 1529.15, 73.70, 74.6, 7.95, 7.9, 3E
2009/04/20, 00:11:22, , , 22.59, 22.40, 1010.5, 17.7448020, -145.6984600, 290.50, 12.71, 288.90, 1010.22, 550.20, 0.0, 199.23, 72.60, 71.3, 104, 4.5, 52.79000, 34.51330, 25.3637, 34.5133, 52.7900, 64.70, 23.0971, 1529.15, 76.30, 76.4, 7.62, 8.5, 3E
2009/04/20, 00:12:22, , , 22.52, 22.30, 1010.5, 17.7460220, -145.7018970, 292.80, 11.86, 289.80, 1010.37, 558.00, 0.0, 199.23, 72.49, 70.3, 106, 3.6, 52.79280, 34.51420, 25.3652, 34.5142, 52.7928, 64.70, 23.0961, 1529.15, 75.90, 82.6, 7.80, 7.4, 3E
2009/04/20, 00:13:22, , , 22.63, 22.30, 1010.4, 17.7472520, -145.7052030, 290.70, 12.38, 290.90, 1010.47, 598.40, 0.0, 199.23, 72.93, 71.8, 87, 3.9, 52.79250, 34.51470, 25.3642, 34.5147, 52.7925, 65.00, 23.0952, 1529.15, 79.50, 78.0, 7.82, 7.2, 3E
2009/04/20, 00:14:22, , , 22.72, 22.30, 1010.5, 17.7484770, -145.7085530, 295.40, 12.48, 289.10, 1010.54, 584.30, 0.0, 199.23, 73.78, 72.6, 98, 5.1, 52.79510, 34.51530, 25.3660, 34.5153, 52.7951, 64.70, 23.0926, 1529.14, 81.90, 68.9, 6.85, 8.3, 3E
2009/04/20, 00:15:22, , , 22.55, 22.40, 1010.5, 17.7496900, -145.7119030, 289.80, 11.85, 290.50, 1010.46, 617.40, 0.0, 199.23, 72.76, 71.7, 90, 3.8, 52.79530, 34.51630, 25.3649, 34.5163, 52.7953, 64.70, 23.0895, 1529.13, 71.60, 82.2, 7.56, 8.0, 3E
2009/04/20, 00:16:22, , , 22.61, 22.30, 1010.3, 17.7509000, -145.7152300, 293.00, 12.12, 290.00, 1010.14, 607.10, 0.0, 199.23, 73.29, 72.4, 87, 4.2, 52.79580, 34.51670, 25.3648, 34.5167, 52.7958, 64.40, 23.0881, 1529.13, 78.10, 77.7, 7.71, 7.0, 3E
2009/04/20, 00:17:22, , , 22.64, 22.30, 1010.3, 17.7521100, -145.7185970, 285.70, 12.47, 290.60, 1010.32, 629.70, 0.0, 199.23, 73.75, 72.5, 101, 4.9, 52.79660, 34.51690, 25.3653, 34.5169, 52.7966, 64.70, 23.0876, 1529.13, 70.40, 78.8, 8.07, 8.2, 3E
2009/04/20, 00:18:23, , , 22.48, 22.30, 1010.3, 17.7533900, -145.7219650, 289.70, 12.47, 290.30, 1010.32, 620.70, 0.0, 199.23, 72.24, 71.1, 105, 4.2, 52.79610, 34.51720, 25.3643, 34.5172, 52.7961, 64.70, 23.0870, 1529.13, 74.40, 78.7, 8.02, 8.1, 3E
2009/04/20, 00:19:22, , , 22.58, 22.30, 1010.4, 17.7546550, -145.7253270, 295.30, 12.85, 289.40, 1010.18, 637.80, 0.0, 199.23, 73.10, 72.1, 104, 4.2, 52.79660, 34.51700, 25.3652, 34.5170, 52.7966, 65.00, 23.0881, 1529.13, 77.00, 75.0, 8.33, 8.2, 3E
2009/04/20, 00:20:23, , , 22.57, 22.30, 1010.4, 17.7558870, -145.7287780, 292.30, 12.53, 289.30, 1010.18, 570.00, 0.0, 199.23, 73.07, 71.0, 96, 4.1, 52.79580, 34.51720, 25.3642, 34.5172, 52.7958, 65.00, 23.0888, 1529.13, 76.80, 77.9, 8.02, 8.5, 3E
2009/04/20, 00:21:22, , , 22.61, 22.30, 1010.3, 17.7571230, -145.7321320, 294.90, 11.84, 288.90, 1010.28, 529.10, 0.0, 199.23, 73.02, 72.2, 95, 3.7, 52.79410, 34.51760, 25.3619, 34.5176, 52.7941, 64.70, 23.0898, 1529.14, 80.50, 82.4, 7.22, 7.9, 3E
2009/04/20, 00:22:22, , , 22.62, 22.30, 1010.3, 17.7583630, -145.7355080, 289.20, 12.58, 288.60, 1010.14, 504.10, 0.0, 199.23, 73.59, 71.9, 100, 4.0, 52.79430, 34.51810, 25.3616, 34.5181, 52.7943, 65.00, 23.0920, 1529.14, 77.90, 81.0, 7.85, 7.3, 3E
2009/04/20, 00:23:22, , , 22.52, 22.30, 1010.3, 17.7595830, -145.7388380, 291.50, 12.54, 291.20, 1010.28, 464.70, 0.0, 199.23, 72.98, 72.0, 102, 4.3, 52.79410, 34.51790, 25.3616, 34.5179, 52.7941, 64.70, 23.0927, 1529.14, 78.40, 79.5, 7.69, 8.3, 3E
2009/04/20, 00:24:23, , , 22.57, 22.20, 1010.3, 17.7608720, -145.7422420, 295.10, 12.52, 289.60, 1010.23, 424.30, 0.0, 199.23, 74.06, 71.9, 101, 3.7, 52.79180, 34.51840, 25.3586, 34.5184, 52.7918, 65.00, 23.0952, 1529.15, 80.80, 83.7, 7.65, 8.0, 3E
2009/04/20, 00:25:22, , , 22.51, 22.20, 1010.3, 17.7620750, -145.7455570, 290.10, 12.55, 290.80, 1010.19, 378.80, 0.0, 199.23, 73.44, 72.1, 96, 2.7, 52.79350, 34.51790, 25.3611, 34.5179, 52.7935, 64.70, 23.0965, 1529.15, 80.70, 85.6, 7.81, 7.8, 3E
2009/04/20, 00:26:22, , , 22.60, 22.20, 1010.4, 17.7633220, -145.7489480, 286.60, 12.62, 290.30, 1010.13, 368.90, 0.0, 199.23, 74.10, 73.6, 87, 3.6, 52.79190, 34.51840, 25.3588, 34.5184, 52.7919, 64.70, 23.0983, 1529.16, 81.90, 82.2, 7.77, 7.3, 3E
2009/04/20, 00:27:22, , , 22.56, 22.30, 1010.3, 17.7645550, -145.7523200, 286.70, 12.68, 290.70, 1010.23, 385.30, 0.0, 199.23, 73.71, 73.3, 92, 4.1, 52.79140, 34.51910, 25.3575, 34.5191, 52.7914, 64.70, 23.1001, 1529.16, 77.90, 77.4, 7.71, 7.3, 3E
2009/04/20, 00:28:22, , , 22.50, 22.30, 1010.3, 17.7657850, -145.7556950, 289.00, 12.33, 291.20, 1010.35, 417.60, 0.0, 199.23, 74.05, 73.0, 94, 4.1, 52.79250, 34.52050, 25.3566, 34.5205, 52.7925, 64.70, 23.1018, 1529.17, 74.70, 86.1, 7.96, 7.5, 3E
2009/04/20, 00:29:22, , , 22.54, 22.30, 1010.3, 17.7670070, -145.7590550, 293.60, 12.00, 289.40, 1010.16, 424.20, 0.0, 199.23, 74.26, 72.6, 89, 4.3, 52.79510, 34.52170, 25.3576, 34.5217, 52.7951, 65.00, 23.1020, 1529.17, 75.70, 74.0, 7.37, 8.3, 3E
2009/04/20, 00:30:22, , , 22.45, 22.30, 1010.1, 17.7682500, -145.7624020, 294.00, 12.42, 291.60, 1010.16, 415.00, 0.0, 199.23, 73.46, 72.8, 94, 4.5, 52.79510, 34.52270, 25.3562, 34.5227, 52.7951, 64.70, 23.1023, 1529.17, 77.70, 73.7, 7.66, 8.4, 3E
2009/04/20, 00:31:22, , , 22.41, 22.20, 1010.4, 17.7694770, -145.7657920, 290.10, 12.74, 291.00, 1010.18, 396.20, 0.0, 199.23, 73.07, 71.1, 97, 4.1, 52.79510, 34.52380, 25.3547, 34.5238, 52.7951, 64.70, 23.1015, 1529.17, 73.70, 75.1, 8.33, 8.5, 3E
2009/04/20, 00:32:22, , , 22.45, 22.20, 1010.4, 17.7707120, -145.7691930, 286.90, 12.74, 290.30, 1010.36, 381.20, 0.0, 199.23, 72.92, 72.4, 99, 4.9, 52.79690, 34.52550, 25.3542, 34.5255, 52.7969, 65.00, 23.1015, 1529.17, 71.50, 77.1, 8.51, 8.1, 3E
2009/04/20, 00:33:22, , , 22.44, 22.20, 1010.1, 17.7720050, -145.7726680, 290.20, 12.62, 291.10, 1010.04, 367.10, 0.0, 199.23, 72.81, 70.9, 95, 4.4, 52.79460, 34.52490, 25.3528, 34.5249, 52.7946, 65.20, 23.1010, 1529.17, 75.30, 80.2, 8.10, 7.8, 3E
2009/04/20, 00:34:22, , , 22.52, 22.20, 1010.2, 17.7732050, -145.7760300, 287.60, 12.37, 289.90, 1010.19, 371.40, 0.0, 199.23, 73.37, 71.9, 97, 4.4, 52.78960, 34.52550, 25.3472, 34.5255, 52.7896, 64.70, 23.1004, 1529.17, 74.60, 82.7, 8.10, 7.2, 3E
2009/04/20, 00:35:22, , , 22.45, 22.20, 1010.2, 17.7744400, -145.7794400, 295.20, 13.24, 290.50, 1010.26, 355.50, 0.0, 199.23, 73.02, 71.4, 100, 4.5, 52.79050, 34.52550, 25.3481, 34.5255, 52.7905, 65.00, 23.1008, 1529.17, 81.50, 75.3, 7.92, 7.5, 3E
2009/04/20, 00:36:22, , , 22.42, 22.20, 1010.3, 17.7756400, -145.7828300, 292.40, 12.32, 290.60, 1010.07, 340.20, 0.0, 199.23, 72.91, 71.2, 103, 4.1, 52.78670, 34.52600, 25.3437, 34.5260, 52.7867, 65.00, 23.1007, 1529.17, 76.30, 75.6, 7.68, 8.4, 3E
2009/04/20, 00:37:22, , , 22.40, 22.20, 1010.1, 17.7768620, -145.7863180, 287.10, 12.76, 289.30, 1010.08, 340.60, 0.0, 199.23, 72.65, 72.0, 107, 3.1, 52.78550, 34.52590, 25.3427, 34.5259, 52.7855, 65.60, 23.1014, 1529.18, 78.20, 86.5, 8.30, 7.6, 3E
2009/04/20, 00:38:22, , , 22.43, 22.20, 1010.3, 17.7780170, -145.7896570, 288.20, 12.64, 289.50, 1010.08, 333.90, 0.0, 199.23, 73.99, 72.0, 106, 3.4, 52.78280, 34.52630, 25.3397, 34.5263, 52.7828, 64.70, 23.1014, 1529.18, 82.20, 82.8, 8.13, 7.4, 3E
2009/04/20, 00:39:22, , , 22.47, 22.30, 1010.3, 17.7792480, -145.7930550, 293.30, 12.15, 291.00, 1010.13, 333.10, 0.0, 199.23, 74.59, 73.0, 108, 3.7, 52.78260, 34.52690, 25.3386, 34.5269, 52.7826, 65.00, 23.1004, 1529.17, 86.00, 83.6, 7.36, 8.1, 3E
2009/04/20, 00:40:22, , , 22.37, 22.30, 1010.2, 17.7804500, -145.7964930, 292.00, 12.51, 290.20, 1010.23, 327.50, 0.0, 199.23, 74.67, 72.3, 98, 4.1, 52.78030, 34.52720, 25.3361, 34.5272, 52.7803, 65.20, 23.1002, 1529.17, 84.20, 78.4, 7.71, 7.4, 3E
2009/04/20, 00:41:22, , , 22.44, 22.30, 1010.3, 17.7816630, -145.7999580, 291.60, 12.75, 290.30, 1010.06, 332.90, 0.0, 199.23, 74.51, 73.5, 109, 4.1, 52.77900, 34.52760, 25.3343, 34.5276, 52.7790, 65.00, 23.1008, 1529.18, 86.20, 83.9, 7.40, 8.7, 3E
2009/04/20, 00:42:22, , , 22.40, 22.30, 1010.2, 17.7829500, -145.8034350, 296.30, 13.31, 287.90, 1010.08, 348.60, 0.0, 199.23, 74.66, 73.6, 102, 4.3, 52.77670, 34.52750, 25.3322, 34.5275, 52.7767, 65.00, 23.1014, 1529.18, 84.10, 75.1, 7.91, 8.1, 3E
2009/04/20, 00:43:22, , , 22.35, 22.30, 1010.4, 17.7841150, -145.8068600, 286.10, 12.48, 290.90, 1010.15, 353.60, 0.0, 199.23, 74.65, 72.8, 100, 4.5, 52.77540, 34.52800, 25.3303, 34.5280, 52.7754, 65.00, 23.1017, 1529.18, 77.90, 77.0, 8.07, 8.4, 3E
2009/04/20, 00:44:22, , , 22.33, 22.20, 1010.2, 17.7853170, -145.8101900, 290.20, 12.43, 291.00, 1010.14, 362.20, 0.0, 199.23, 74.44, 72.9, 111, 4.5, 52.77180, 34.52740, 25.3276, 34.5274, 52.7718, 65.00, 23.1021, 1529.18, 76.30, 78.7, 8.05, 8.2, 3E
2009/04/20, 00:45:22, , , 22.37, 22.20, 1010.3, 17.7865120, -145.8135630, 289.90, 12.52, 289.90, 1009.91, 382.90, 0.0, 199.23, 74.90, 73.0, 102, 4.5, 52.77210, 34.52730, 25.3280, 34.5273, 52.7721, 65.20, 23.1009, 1529.18, 76.00, 76.1, 8.30, 8.0, 3E
2009/04/20, 00:46:23, , , 22.31, 22.20, 1010.3, 17.7877080, -145.8169850, 289.70, 12.97, 289.30, 1010.05, 407.90, 0.0, 199.23, 74.04, 71.8, 105, 4.0, 52.76960, 34.52660, 25.3264, 34.5266, 52.7696, 65.00, 23.1017, 1529.18, 77.10, 81.0, 8.13, 8.4, 3E
2009/04/20, 00:47:22, , , 22.39, 22.20, 1010.3, 17.7889070, -145.8203750, 292.40, 12.57, 289.00, 1010.15, 437.50, 0.0, 199.23, 74.69, 72.3, 106, 4.3, 52.76830, 34.52630, 25.3256, 34.5263, 52.7683, 65.20, 23.1025, 1529.18, 79.00, 78.7, 8.03, 8.1, 3E
2009/04/20, 00:48:22, , , 22.28, 22.20, 1010.2, 17.7900770, -145.8237780, 288.60, 11.80, 289.00, 1010.15, 463.10, 0.0, 199.23, 73.09, 72.8, 108, 3.3, 52.76720, 34.52500, 25.3263, 34.5250, 52.7672, 65.20, 23.1036, 1529.18, 78.30, 86.8, 7.49, 7.5, 3E
2009/04/20, 00:49:22, , , 22.32, 22.20, 1010.0, 17.7912720, -145.8272080, 292.00, 12.57, 288.80, 1010.17, 473.00, 0.0, 199.23, 73.21, 73.0, 97, 3.5, 52.76700, 34.52390, 25.3275, 34.5239, 52.7670, 65.20, 23.1047, 1529.18, 85.00, 84.2, 7.89, 7.5, 3E
2009/04/20, 00:50:22, , , 22.45, 22.20, 1010.2, 17.7925050, -145.8306520, 289.30, 11.89, 289.90, 1009.95, 458.90, 0.0, 199.23, 74.58, 73.6, 99, 5.4, 52.76650, 34.52370, 25.3273, 34.5237, 52.7665, 65.20, 23.1058, 1529.18, 81.00, 73.0, 7.48, 9.1, 3E
2009/04/20, 00:51:22, , , 22.39, 22.20, 1010.1, 17.7936980, -145.8339950, 289.40, 12.92, 291.30, 1009.96, 457.80, 0.0, 199.23, 74.22, 72.6, 103, 5.4, 52.76830, 34.52280, 25.3301, 34.5228, 52.7683, 65.20, 23.1058, 1529.18, 74.20, 77.2, 8.99, 8.5, 3E
2009/04/20, 00:52:22, , , 22.30, 22.20, 1010.2, 17.7949070, -145.8374150, 290.40, 12.58, 291.80, 1010.08, 445.60, 0.0, 199.23, 73.70, 72.3, 100, 4.2, 52.77010, 34.52150, 25.3336, 34.5215, 52.7701, 65.20, 23.1065, 1529.18, 75.20, 79.4, 8.47, 8.5, 3E
2009/04/20, 00:53:22, , , 22.40, 22.20, 1010.2, 17.7961170, -145.8408470, 292.50, 12.76, 289.50, 1010.01, 443.60, 0.0, 199.23, 74.06, 73.5, 106, 4.1, 52.77190, 34.52160, 25.3352, 34.5216, 52.7719, 65.20, 23.1068, 1529.18, 78.80, 76.8, 8.57, 8.8, 3E
2009/04/20, 00:54:22, , , 22.30, 22.20, 1010.1, 17.7973180, -145.8443380, 284.60, 13.00, 289.90, 1009.88, 468.50, 0.0, 199.23, 73.25, 72.0, 94, 4.2, 52.77420, 34.52170, 25.3373, 34.5217, 52.7742, 65.60, 23.1069, 1529.18, 75.70, 79.4, 8.68, 8.0, 3E
2009/04/20, 00:55:22, , , 22.52, 22.20, 1010.2, 17.7984980, -145.8477630, 285.80, 12.29, 290.30, 1009.84, 522.60, 0.0, 199.23, 74.51, 74.1, 88, 4.9, 52.77620, 34.52190, 25.3390, 34.5219, 52.7762, 65.00, 23.1066, 1529.18, 76.70, 75.8, 8.04, 7.3, 3E
2009/04/20, 00:56:22, , , 22.41, 22.20, 1010.2, 17.7996430, -145.8511070, 287.80, 12.94, 290.00, 1010.06, 523.50, 0.0, 199.23, 73.73, 72.0, 97, 4.3, 52.77950, 34.52200, 25.3421, 34.5220, 52.7795, 65.60, 23.1021, 1529.17, 74.40, 78.2, 7.93, 7.6, 3E
2009/04/20, 00:57:22, , , 22.43, 22.20, 1010.2, 17.8008030, -145.8545120, 289.60, 12.65, 289.10, 1010.26, 501.50, 0.0, 199.23, 73.51, 72.1, 99, 4.9, 52.78230, 34.52260, 25.3440, 34.5226, 52.7823, 65.20, 23.0996, 1529.17, 73.80, 72.5, 8.20, 8.3, 3E
2009/04/20, 00:58:22, , , 22.44, 22.20, 1010.2, 17.8019680, -145.8579150, 294.70, 12.62, 289.20, 1009.96, 473.90, 0.0, 199.23, 73.30, 72.1, 101, 4.4, 52.78450, 34.52290, 25.3456, 34.5229, 52.7845, 65.20, 23.0967, 1529.16, 76.10, 77.8, 7.90, 8.9, 3E
2009/04/20, 00:59:22, , , 22.53, 22.20, 1010.3, 17.8031620, -145.8613480, 291.40, 12.44, 290.00, 1010.09, 456.80, 0.0, 199.23, 74.41, 72.1, 97, 4.3, 52.78650, 34.52420, 25.3460, 34.5242, 52.7865, 65.20, 23.0938, 1529.15, 77.40, 73.7, 8.10, 8.0, 3E
2009/04/20, 01:00:23, , , 22.48, 22.20, 1010.2, 17.8043170, -145.8648320, 289.30, 12.87, 288.80, 1010.12, 465.50, 0.0, 199.23, 73.70, 72.4, 101, 4.0, 52.78640, 34.52450, 25.3454, 34.5245, 52.7864, 65.60, 23.0908, 1529.15, 76.00, 75.6, 7.91, 7.4, 3E
2009/04/20, 01:01:22, , , 22.43, 22.20, 1010.4, 17.8054800, -145.8683230, 290.00, 12.61, 289.60, 1010.01, 476.80, 0.0, 199.23, 73.13, 72.3, 100, 3.5, 52.78720, 34.52470, 25.3459, 34.5247, 52.7872, 65.60, 23.0888, 1529.14, 77.10, 73.9, 7.90, 8.1, 3E
2009/04/20, 01:02:22, , , 22.53, 22.20, 1010.3, 17.8066550, -145.8716750, 289.90, 12.44, 289.10, 1010.24, 510.10, 0.0, 199.23, 73.88, 73.0, 100, 3.9, 52.78740, 34.52460, 25.3463, 34.5246, 52.7874, 65.90, 23.0878, 1529.14, 79.10, 80.9, 7.67, 8.3, 3E
2009/04/20, 01:03:22, , , 22.62, 22.30, 1010.3, 17.8078330, -145.8751300, 290.90, 12.06, 290.10, 1010.34, 512.50, 0.0, 199.23, 74.39, 73.9, 99, 4.0, 52.78740, 34.52540, 25.3453, 34.5254, 52.7874, 65.90, 23.0871, 1529.14, 81.50, 78.7, 7.43, 7.7, 3E
2009/04/20, 01:04:22, , , 22.63, 22.30, 1010.2, 17.8089930, -145.8785030, 290.10, 12.41, 291.00, 1010.09, 503.30, 0.0, 199.23, 74.64, 73.4, 95, 3.8, 52.78550, 34.52520, 25.3436, 34.5252, 52.7855, 65.20, 23.0887, 1529.14, 81.60, 74.6, 7.38, 7.9, 3E
2009/04/20, 01:05:22, , , 22.58, 22.30, 1010.3, 17.8101350, -145.8819400, 290.20, 12.17, 289.90, 1010.03, 461.90, 0.0, 199.23, 74.18, 73.3, 91, 4.2, 52.78670, 34.52570, 25.3441, 34.5257, 52.7867, 65.60, 23.0876, 1529.14, 77.80, 74.8, 7.15, 7.8, 3E
2009/04/20, 01:06:22, , , 22.57, 22.30, 1010.3, 17.8113230, -145.8853400, 286.50, 11.80, 290.60, 1009.89, 457.00, 0.0, 199.23, 73.99, 73.4, 88, 4.7, 52.78590, 34.52620, 25.3427, 34.5262, 52.7859, 65.90, 23.0887, 1529.14, 74.90, 71.1, 7.44, 7.6, 3E
2009/04/20, 01:07:22, , , 22.60, 22.20, 1010.2, 17.8125330, -145.8887580, 292.60, 12.59, 291.00, 1009.95, 474.20, 0.0, 199.23, 74.41, 73.7, 95, 4.9, 52.78560, 34.52570, 25.3431, 34.5257, 52.7856, 65.90, 23.0889, 1529.14, 76.10, 73.4, 7.76, 8.2, 3E
2009/04/20, 01:08:22, , , 22.50, 22.20, 1010.1, 17.8136830, -145.8921730, 290.20, 11.81, 289.60, 1009.97, 476.00, 0.0, 199.23, 73.86, 72.4, 91, 4.7, 52.78490, 34.52620, 25.3418, 34.5262, 52.7849, 65.60, 23.0888, 1529.14, 71.10, 72.3, 7.94, 8.0, 3E
2009/04/20, 01:09:23, , , 22.59, 22.20, 1010.1, 17.8148480, -145.8956030, 288.70, 12.69, 290.30, 1009.81, 518.00, 0.0, 199.23, 74.57, 73.5, 103, 4.3, 52.78500, 34.52620, 25.3418, 34.5262, 52.7850, 65.90, 23.0886, 1529.14, 76.20, 79.6, 8.14, 7.9, 3E
2009/04/20, 01:10:22, , , 22.48, 22.20, 1010.1, 17.8160030, -145.8990180, 290.30, 12.15, 289.50, 1009.97, 480.90, 0.0, 199.23, 74.50, 72.7, 109, 4.1, 52.78210, 34.52640, 25.3388, 34.5264, 52.7821, 65.90, 23.0883, 1529.14, 75.80, 81.4, 7.91, 8.8, 3E
2009/04/20, 01:11:22, , , 22.41, 22.20, 1010.0, 17.8171730, -145.9024420, 287.80, 12.17, 290.20, 1009.93, 440.90, 0.0, 199.23, 74.36, 72.3, 82, 3.7, 52.78130, 34.52670, 25.3377, 34.5267, 52.7813, 65.60, 23.0885, 1529.14, 76.50, 80.8, 8.27, 7.4, 3E
2009/04/20, 01:12:22, , , 22.56, 22.20, 1010.1, 17.8183420, -145.9058850, 282.80, 12.57, 290.20, 1009.84, 429.00, 0.0, 199.23, 74.34, 74.3, 96, 5.0, 52.78140, 34.52650, 25.3380, 34.5265, 52.7814, 65.60, 23.0889, 1529.14, 73.70, 69.1, 7.98, 8.3, 3E
2009/04/20, 01:13:22, , , 22.44, 22.20, 1010.1, 17.8195270, -145.9093430, 292.90, 13.01, 290.70, 1010.06, 422.10, 0.0, 199.23, 74.11, 72.9, 85, 4.3, 52.78030, 34.52660, 25.3368, 34.5266, 52.7803, 65.90, 23.0892, 1529.14, 74.00, 70.9, 8.28, 7.6, 3E
2009/04/20, 01:14:22, , , 22.50, 22.20, 1010.2, 17.8206850, -145.9128030, 292.90, 13.33, 291.70, 1010.11, 414.20, 0.0, 199.23, 74.31, 73.7, 95, 4.4, 52.78240, 34.52610, 25.3394, 34.5261, 52.7824, 65.90, 23.0892, 1529.14, 78.20, 70.3, 8.06, 8.3, 3E
2009/04/20, 01:15:22, , , 22.45, 22.20, 1010.2, 17.8218670, -145.9162570, 290.20, 12.32, 291.10, 1009.96, 417.70, 0.0, 199.23, 74.30, 72.5, 90, 4.8, 52.78310, 34.52640, 25.3398, 34.5264, 52.7831, 65.90, 23.0904, 1529.15, 73.00, 70.7, 7.90, 8.4, 3E
2009/04/20, 01:16:22, , , 22.49, 22.20, 1010.0, 17.8230700, -145.9196700, 290.60, 12.38, 289.40, 1009.93, 410.00, 0.0, 199.23, 74.34, 73.1, 98, 4.9, 52.78410, 34.52690, 25.3401, 34.5269, 52.7841, 65.90, 23.0908, 1529.15, 74.70, 72.9, 7.81, 8.1, 3E
2009/04/20, 01:17:22, , , 22.40, 22.20, 1010.1, 17.8242280, -145.9231270, 289.30, 12.27, 290.30, 1010.02, 414.80, 0.0, 199.23, 73.45, 72.5, 109, 4.4, 52.78420, 34.52630, 25.3410, 34.5263, 52.7842, 65.90, 23.0917, 1529.15, 73.40, 79.7, 8.24, 8.9, 3E
2009/04/20, 01:18:22, , , 22.47, 22.20, 1010.0, 17.8254150, -145.9265330, 285.70, 12.51, 289.50, 1010.11, 391.40, 0.0, 199.23, 74.37, 73.0, 96, 4.7, 52.78490, 34.52650, 25.3413, 34.5265, 52.7849, 65.60, 23.0930, 1529.15, 73.90, 76.1, 8.51, 8.0, 3E
2009/04/20, 01:19:22, , , 22.38, 22.20, 1010.0, 17.8265400, -145.9299470, 286.20, 12.24, 290.30, 1009.93, 376.70, 0.0, 199.23, 73.30, 72.6, 102, 4.2, 52.78690, 34.52670, 25.3431, 34.5267, 52.7869, 65.60, 23.0940, 1529.16, 71.80, 81.4, 8.08, 7.8, 3E
2009/04/20, 01:20:23, , , 22.37, 22.20, 1010.1, 17.8277380, -145.9334330, 288.50, 12.16, 291.20, 1009.76, 363.70, 0.0, 199.23, 73.54, 71.6, 101, 3.9, 52.78640, 34.52730, 25.3418, 34.5273, 52.7864, 65.60, 23.0950, 1529.16, 76.20, 83.8, 8.34, 8.3, 3E
2009/04/20, 01:21:22, , , 22.47, 22.20, 1010.1, 17.8289620, -145.9368050, 288.70, 12.86, 291.20, 1009.88, 349.00, 0.0, 199.23, 74.69, 72.8, 103, 4.9, 52.78590, 34.52760, 25.3409, 34.5276, 52.7859, 65.60, 23.0959, 1529.16, 80.00, 72.8, 8.49, 8.2, 3E
2009/04/20, 01:22:23, , , 22.44, 22.20, 1010.1, 17.8301880, -145.9402900, 286.50, 12.61, 291.40, 1009.88, 341.30, 0.0, 199.23, 74.32, 72.8, 100, 5.4, 52.78720, 34.52840, 25.3410, 34.5284, 52.7872, 65.60, 23.0948, 1529.16, 74.50, 72.4, 8.18, 8.5, 3E
2009/04/20, 01:23:22, , , 22.38, 22.20, 1010.1, 17.8313800, -145.9436570, 292.10, 12.31, 287.00, 1009.95, 324.90, 0.0, 199.23, 73.88, 72.8, 99, 4.1, 52.78550, 34.52890, 25.3387, 34.5289, 52.7855, 65.60, 23.0941, 1529.16, 71.60, 81.3, 8.09, 7.9, 3E
2009/04/20, 01:24:22, , , 22.44, 22.20, 1010.0, 17.8325520, -145.9471500, 286.80, 12.35, 291.00, 1009.83, 312.00, 0.0, 199.23, 74.65, 73.7, 100, 4.6, 52.78730, 34.52980, 25.3394, 34.5298, 52.7873, 65.20, 23.0929, 1529.16, 75.20, 77.0, 8.37, 7.5, 3E
2009/04/20, 01:25:22, , , 22.34, 22.20, 1010.0, 17.8337070, -145.9505050, 293.00, 12.06, 288.60, 1009.80, 304.80, 0.0, 199.23, 74.24, 72.5, 110, 4.2, 52.78460, 34.53020, 25.3362, 34.5302, 52.7846, 65.60, 23.0917, 1529.16, 77.90, 81.9, 7.46, 8.3, 3E
2009/04/20, 01:26:22, , , 22.38, 22.20, 1010.1, 17.8349170, -145.9538730, 287.50, 11.79, 290.80, 1009.88, 306.20, 0.0, 199.23, 74.92, 73.7, 91, 4.4, 52.78080, 34.53070, 25.3319, 34.5307, 52.7808, 65.90, 23.0894, 1529.15, 76.30, 68.6, 8.06, 7.0, 3E
2009/04/20, 01:27:22, , , 22.46, 22.20, 1009.9, 17.8361050, -145.9572480, 287.40, 12.26, 290.80, 1009.96, 303.00, 0.0, 199.23, 75.12, 74.5, 89, 5.3, 52.77720, 34.53050, 25.3287, 34.5305, 52.7772, 65.60, 23.0882, 1529.15, 75.20, 70.6, 7.87, 7.9, 3E
2009/04/20, 01:28:22, , , 22.34, 22.20, 1010.0, 17.8372730, -145.9606570, 289.30, 12.41, 290.50, 1009.79, 312.70, 0.0, 199.23, 74.50, 73.3, 95, 4.8, 52.77260, 34.53020, 25.3246, 34.5302, 52.7726, 65.60, 23.0864, 1529.14, 70.30, 73.0, 8.50, 8.2, 3E
2009/04/20, 01:29:22, , , 22.39, 22.20, 1010.0, 17.8384170, -145.9640720, 284.20, 12.42, 288.70, 1009.88, 367.20, 0.0, 199.23, 75.18, 74.2, 94, 5.0, 52.77030, 34.53030, 25.3223, 34.5303, 52.7703, 65.60, 23.0847, 1529.14, 69.10, 70.9, 8.54, 8.4, 3E
2009/04/20, 01:30:23, , , 22.37, 22.20, 1010.0, 17.8395350, -145.9674930, 285.30, 12.89, 289.90, 1010.02, 394.10, 0.0, 199.23, 75.29, 73.6, 92, 4.8, 52.76750, 34.53050, 25.3193, 34.5305, 52.7675, 65.90, 23.0818, 1529.13, 70.60, 72.0, 8.64, 7.5, 3E
2009/04/20, 01:31:22, , , 22.42, 22.20, 1010.0, 17.8406820, -145.9709380, 289.50, 12.92, 289.50, 1009.79, 392.10, 0.0, 199.23, 75.37, 74.0, 97, 5.6, 52.76550, 34.53050, 25.3173, 34.5305, 52.7655, 65.90, 23.0811, 1529.13, 73.70, 69.0, 8.24, 8.0, 3E
2009/04/20, 01:32:23, , , 22.37, 22.20, 1010.0, 17.8418570, -145.9744050, 291.10, 12.69, 289.30, 1009.79, 354.10, 0.0, 199.23, 75.15, 73.9, 100, 5.2, 52.76450, 34.53080, 25.3159, 34.5308, 52.7645, 65.60, 23.0802, 1529.13, 73.70, 68.9, 8.12, 8.8, 3E
2009/04/20, 01:33:22, , , 22.30, 22.20, 1010.0, 17.8430230, -145.9778920, 290.50, 12.28, 289.80, 1009.85, 366.20, 0.0, 199.23, 74.54, 72.9, 96, 4.5, 52.76310, 34.53030, 25.3152, 34.5303, 52.7631, 65.60, 23.0793, 1529.12, 73.80, 76.6, 8.12, 8.0, 3E